Burley, ID

1:12 PM MST on February 13, 2016 (GMT -0700)
Burley Municipal

Weather History for KBYI - January, 2013

Change the Weather History Date:

Monday, January 7, 2013

  Actual Average Record
Temperature  
Mean Temperature 16 °F 26 °F  
Max Temperature 33 °F 34 °F 55 °F (1956)
Min Temperature -2 °F 18 °F -22 °F (1982)
Degree Days  
Heating Degree Days 49 39  
Month to date heating degree days 413 273  
Since 1 July heating degree days 2760 3153  
Cooling Degree Days 0 0  
Month to date cooling degree days 0 0  
Year to date cooling degree days 0 0  
Moisture  
Dew Point 6 °F    
Average Humidity 88    
Maximum Humidity 100    
Minimum Humidity 76    
Precipitation  
Precipitation T in 0.03 in 0.27 in (1960)
Month to date precipitation T 0.23  
Year to date precipitation T 0.23  
Sea Level Pressure  
Sea Level Pressure 30.23 in    
Wind  
Wind Speed 4 mph (NW)    
Max Wind Speed 14 mph    
Max Gust Speed 18 mph    
Visibility 6 miles    
Events Fog , Snow    
T = Trace of Precipitation, MM = Missing Value Source: NWS Daily Summary

Daily Weather History Graph

Daily Weather History Graph

Search for Another Location

Airport or City:

Trip Planner

Search our weather history database for the weather conditions in past years. The results will help you decide how hot, cold, wet, or windy it might be!

Date:

Astronomy

Jan. 07, 2013 Rise Set
Actual Time 8:04 AM MST 5:18 PM MST
Civil Twilight 7:33 AM MST 5:50 PM MST
Nautical Twilight 6:57 AM MST 6:25 PM MST
Astronomical Twilight 6:23 AM MST 6:59 PM MST
Moon 3:31 AM MST (1/7) 1:33 PM MST (1/7)
Length of Visible Light 10h 17m
Length of Day
9h 14m
Waning Crescent, 22% of the Moon is Illuminated
Jan 7
Waning Crescent
Jan 11
New
Jan 18
First Quarter
Jan 26
Full
Feb 3
Last Quarter

Hourly Weather History & Observations

Time (MST) Temp. Windchill Dew Point Humidity Pressure Visibility Wind Dir Wind Speed Gust Speed Precip Events Conditions
12:53 AM 1.9 °F -5.6 °F -2.9 °F 80% 30.34 in 6.0 mi SW 3.5 mph - N/A   Haze
1:53 AM 1.0 °F -8.7 °F -2.9 °F 83% 30.36 in 6.0 mi ESE 4.6 mph - N/A   Clear
2:53 AM 1.9 °F -5.6 °F -0.9 °F 88% 30.35 in 6.0 mi NNW 3.5 mph - N/A   Clear
3:45 AM -0.4 °F - -4.0 °F 85% 30.15 in 6.0 mi Calm Calm - N/A   Partly Cloudy
3:53 AM -0.9 °F -8.9 °F -4.0 °F 87% 30.34 in 6.0 mi ESE 3.5 mph - N/A   Partly Cloudy
4:06 AM -0.4 °F - -2.2 °F 92% 30.16 in 6.0 mi Calm Calm - N/A   Mostly Cloudy
4:38 AM 1.4 °F -6.2 °F -2.2 °F 85% 30.17 in 1.8 mi North 3.5 mph - N/A   Overcast
4:41 AM 1.4 °F - -0.4 °F 92% 30.16 in 0.8 mi Calm Calm - N/A   Overcast
4:53 AM 1.9 °F -7.6 °F -0.0 °F 91% 30.34 in 0.5 mi North 4.6 mph - N/A Fog Light Freezing Fog
5:02 AM 1.4 °F - -0.4 °F 92% 30.17 in 1.5 mi Calm Calm - N/A   Overcast
5:10 AM 1.4 °F - -0.4 °F 92% 30.18 in 2.0 mi Calm Calm - N/A   Overcast
5:20 AM 1.4 °F -6.2 °F -0.4 °F 92% 30.18 in 1.8 mi ENE 3.5 mph - N/A   Overcast
5:28 AM 1.4 °F - -0.4 °F 92% 30.18 in 1.0 mi Calm Calm - N/A   Overcast
5:34 AM 1.4 °F -6.2 °F -0.4 °F 92% 30.17 in 2.0 mi SE 3.5 mph - N/A   Overcast
5:42 AM 1.4 °F -6.2 °F -2.2 °F 85% 30.17 in 4.0 mi ESE 3.5 mph - N/A   Overcast
5:53 AM 1.0 °F - -2.0 °F 87% 30.36 in 5.0 mi Calm Calm - N/A   Mostly Cloudy
6:05 AM -0.4 °F - -2.2 °F 92% 30.14 in 5.0 mi Calm Calm - N/A   Scattered Clouds
6:46 AM -0.4 °F - -4.0 °F 85% 30.14 in 6.0 mi Calm Calm - N/A   Mostly Cloudy
6:53 AM -0.0 °F -7.9 °F -4.0 °F 83% 30.36 in 6.0 mi NNW 3.5 mph - N/A   Mostly Cloudy
7:18 AM -0.4 °F - -4.0 °F 85% 30.15 in 7.0 mi Calm Calm - N/A   Scattered Clouds
7:45 AM -0.4 °F - -5.8 °F 78% 30.16 in 7.0 mi Calm Calm - N/A   Mostly Cloudy
7:53 AM -0.0 °F - -5.1 °F 79% 30.39 in 8.0 mi Calm Calm - N/A   Mostly Cloudy
8:17 AM -0.4 °F - -4.0 °F 85% 30.16 in 6.0 mi Calm Calm - N/A   Scattered Clouds
8:28 AM 1.4 °F -6.2 °F -4.0 °F 78% 30.16 in 7.0 mi North 3.5 mph - N/A   Mostly Cloudy
8:53 AM 1.9 °F -9.2 °F -2.0 °F 83% 30.40 in 7.0 mi NNW 5.8 mph - N/A   Mostly Cloudy
9:01 AM 1.4 °F -6.2 °F -0.4 °F 92% 30.18 in 7.0 mi NNW 3.5 mph - N/A   Mostly Cloudy
9:30 AM 3.2 °F - -0.4 °F 85% 30.19 in 6.0 mi Calm Calm - N/A   Mostly Cloudy
9:36 AM 3.2 °F - -0.4 °F 85% 30.19 in 7.0 mi Calm Calm - N/A   Scattered Clouds
9:53 AM 3.0 °F -4.4 °F -0.0 °F 87% 30.40 in 7.0 mi SE 3.5 mph - N/A   Clear
10:53 AM 6.1 °F - 6.1 °F 100% 30.41 in 7.0 mi Calm Calm - N/A   Clear
11:53 AM 10.9 °F - 7.0 °F 84% 30.39 in 7.0 mi Calm Calm - N/A   Partly Cloudy
12:53 PM 12.9 °F - 7.0 °F 77% 30.32 in 7.0 mi Calm Calm - N/A   Overcast
1:53 PM 16.0 °F 8.8 °F 10.0 °F 77% 30.32 in 8.0 mi North 4.6 mph - N/A   Overcast
2:53 PM 17.1 °F - 12.0 °F 81% 30.30 in 5.0 mi Calm Calm - N/A   Haze
3:35 PM 17.6 °F - 12.2 °F 79% 30.12 in 2.5 mi Calm Calm - 0.00 in Snow Light Snow
3:39 PM 17.6 °F - 12.2 °F 79% 30.12 in 1.2 mi Calm Calm - 0.00 in Snow Light Snow
3:53 PM 19.0 °F - 14.0 °F 81% 30.31 in 1.0 mi Calm Calm - 0.00 in Snow Light Snow
4:19 PM 19.4 °F - 15.8 °F 86% 30.11 in 2.0 mi Calm Calm - 0.00 in Snow Light Snow
4:32 PM 19.4 °F - 15.8 °F 86% 30.11 in 4.0 mi Calm Calm - 0.00 in   Overcast
4:53 PM 19.9 °F 14.9 °F 16.0 °F 85% 30.27 in 5.0 mi SE 3.5 mph - 0.00 in   Overcast
5:53 PM 21.0 °F - 17.1 °F 85% 30.28 in 8.0 mi Calm Calm - N/A   Overcast
6:34 PM 21.2 °F - 19.4 °F 93% 30.10 in 7.0 mi Calm Calm - N/A   Overcast
6:53 PM 23.0 °F - 19.9 °F 88% 30.26 in 7.0 mi Calm Calm - N/A   Overcast
7:53 PM 32.0 °F 26.4 °F 28.0 °F 85% 30.23 in 10.0 mi WSW 5.8 mph - 0.00 in   Overcast
8:11 PM 30.2 °F 26.7 °F 28.4 °F 93% 30.09 in 10.0 mi WSW 3.5 mph - N/A   Overcast
8:53 PM 33.1 °F 25.5 °F 30.0 °F 89% 30.22 in 10.0 mi WSW 9.2 mph - N/A   Overcast
9:53 PM 33.1 °F 24.9 °F 28.9 °F 85% 30.21 in 10.0 mi WSW 10.4 mph - 0.00 in   Overcast
10:53 PM 30.9 °F 21.2 °F 28.0 °F 89% 30.21 in 10.0 mi West 12.7 mph - 0.00 in   Partly Cloudy
11:53 PM 28.9 °F 21.1 °F 25.0 °F 85% 30.21 in 10.0 mi West 8.1 mph - 0.00 in   Partly Cloudy